Home   Weather   Independence   Past weeks

Flag for USA Past Weather in Independence, Missouri, USA — Yesterday and Last 2 Weeks

Now
51 °F

Light rain. Mostly cloudy.


Feels Like: 48 °F
Forecast: 52 / 66 °F
Wind: 8 mph from East

Location: Lee's Summit Municipal Airport

Current Time: Apr 28, 2017 at 5:33:16 am

Latest Report: Apr 28, 2017 at 4:53 am


Visibility: 7 mi

Pressure: 29.70 "Hg

Humidity: 96%

Dew Point: 50 °F

Location of IndependenceLocation

Past Weather in Independence — Graph

°F

Independence Temperature Yesterday

Maximum temperature yesterday: 61 °F (at 3:53 pm)
Minimum temperature yesterday: 41 °F (at 6:53 am)
Average temperature yesterday: 50 °F

High & Low Weather Summary for the Past Weeks

 TemperatureHumidityPressure
High80 °F (Apr 15, 4:53 pm)100% (Apr 16, 3:04 am)30.19 "Hg (Apr 16, 3:04 am)
Low41 °F (Apr 27, 6:53 am)19% (Apr 23, 4:53 pm)29.39 "Hg (Apr 25, 3:53 pm)
Average61 °F67%29.90 "Hg
* Reported Apr 13 3:53 am — Apr 28 3:53 am, Independence, Weather by CustomWeather, © 2017

Note: Actual official high and low records may vary slightly from our data, if they occured in-between our weather recording intervals... More about our weather records

Advertising

Independence Weather History for the Previous 24 Hours

Scroll right to see more
 ConditionsComfort  
Time TempWeatherWind HumidityBarometerVisibility
3:53 am
Fri, Apr 28
51 °FMostly cloudy.9 mph92%29.70 "Hg10 mi
2:53 am51 °FMostly cloudy.13 mph96%29.72 "Hg10 mi
1:53 am51 °FLight rain. Mostly cloudy.5 mph96%29.78 "Hg10 mi
12:53 am52 °FMostly cloudy.8 mph86%29.76 "Hg10 mi
11:53 pm
Thu, Apr 27
52 °FOvercast.8 mph89%29.76 "Hg10 mi
10:53 pm52 °FOvercast.6 mph89%29.76 "Hg10 mi
9:53 pm53 °FPassing clouds.7 mph89%29.74 "Hg10 mi
8:53 pm54 °FLight rain. Mostly cloudy.5 mph86%29.78 "Hg10 mi
7:53 pm56 °FLight rain. Mostly cloudy.8 mph67%29.79 "Hg10 mi
6:53 pm59 °FOvercast.5 mph51%29.75 "Hg10 mi
5:53 pm60 °FPartly sunny.5 mph49%29.73 "Hg10 mi
4:53 pm61 °FPartly sunny.10 mph50%29.73 "Hg10 mi
3:53 pm61 °FSunny.7 mph44%29.72 "Hg10 mi
2:53 pm60 °FSunny.No wind46%29.73 "Hg10 mi
1:53 pm58 °FSunny.7 mph50%29.74 "Hg10 mi
12:53 pm57 °FSunny.6 mph49%29.76 "Hg10 mi
11:53 am54 °FPassing clouds.14 mph55%29.79 "Hg10 mi
10:53 am51 °FSunny.9 mph59%29.78 "Hg10 mi
9:53 am49 °FSunny.14 mph59%29.75 "Hg10 mi
8:53 am46 °FSunny.13 mph63%29.75 "Hg10 mi
7:53 am43 °FOvercast.8 mph74%29.74 "Hg10 mi
6:53 am41 °FPartly sunny.6 mph74%29.71 "Hg10 mi
5:53 am42 °FOvercast.8 mph71%29.70 "Hg10 mi
Weather by CustomWeather, © 2017

See weather overviewHow to use our weather pages